Location: Dover
(48.8500°N, 53.9833°W)
Time: 07:54:57
(UTC+00:00)

Cosmos 2344 - Pass Details

Date: 14 November 2025
Orbit: 1197 x 3045 km, 63.3° (Epoch: 12 December)

Event Time Altitude Azimuth Distance (km) Brightness Sun altitude
Rises 23:24:19 0° 317° (NW) 4,217 7.0 -34.0°
Reaches altitude 10° 23:26:49 10° 317° (NW) 3,335 6.3 -34.4°
Maximum altitude 23:34:47 81° 232° (SW) 1,580 3.9 -35.7°
Enters shadow 23:35:41 74° 177° (S) 1,649 3.9 -35.9°
